Regional Weather Roundup
Issued by NWS Wilmington, NC

Home | Current Version | Previous Version | Text Only | Print | Product List | Glossary On
Versions: 1 2 3 4 5 6 7 8 9 10 11 12 13 14 15 16 17 18 19 20 21 22 23 24 25 26 27
000
ASUS42 KILM 231413
RWRILM
RWRILM
REGIONAL HOURLY WEATHER ROUNDUP
NATIONAL WEATHER SERVICE WILMINGTON NC
1000 AM EDT THU MAR 23 2017

NOTE: "FAIR" INDICATES FEW OR NO CLOUDS BELOW 12,000 FEET WITH NO
SIGNIFICANT WEATHER AND/OR OBSTRUCTIONS TO VISIBILITY.

...............WFO WILMINGTON COUNTY WARNING AREA...............

......COASTAL NC AND SC COUNTIES......

CITY           SKY/WX    TMP DP  RH WIND       PRES   REMARKS
WILMINGTON     SUNNY     47  29  49 E16       30.56R
N MYRTLE BEACH SUNNY     49  31  49 NE15G24   30.53R
MYRTLE BEACH   SUNNY     50  32  50 NE17      30.54R

......INLAND NC AND SC COUNTIES.......

CITY           SKY/WX    TMP DP  RH WIND       PRES   REMARKS
LUMBERTON      SUNNY     45  29  53 NE9       30.57R
ELIZABETHTOWN  SUNNY     44  31  59 NE5       30.58R
WHITEVILLE     SUNNY     45  26  48 NE10G18   30.56R
FLORENCE       SUNNY     46  25  43 E15       30.56R
DARLINGTON     SUNNY     46  27  47 NE12      30.57R
KINGSTREE      FAIR      48  19  32 NE9G17    30.53R
HARTSVILLE     FAIR      45  25  45 NE17      30.56R
BENNETTSVILLE  FAIR      46  28  49 NE14      30.58
CONWAY         FAIR      48  30  49 NE13G22   30.55R
GEORGETOWN     FAIR      52  37  58 NE13G18   30.52R
MARION         FAIR      45  25  45 E14G22    30.57R

....................REST OF NORTH CAROLINA......................

.........EASTERN NC.........

CITY           SKY/WX    TMP DP  RH WIND       PRES   REMARKS
CAPE HATTERAS  SUNNY     44  24  45 NE10G24   30.58R
JACKSONVILLE   SUNNY     43  28  55 NE15G22   30.59R
MOREHEAD CITY  SUNNY     46  26  45 NE16G25   30.58R
KENANSVILLE    SUNNY     43  27  52 E7G17     30.59R
NEW BERN       SUNNY     44  26  49 NE15      30.61R
ELIZABETH CITY SUNNY     41  21  44 NE14      30.63R

.........CENTRAL NC.........

CITY           SKY/WX    TMP DP  RH WIND       PRES   REMARKS
RALEIGH DURHAM SUNNY     43  14  31 NE9       30.60R
ROCKY MOUNT    SUNNY     41  21  44 NE12      30.61R
ROANOKE RAPIDS NOT AVBL
FAYETTEVILLE   SUNNY     46  27  47 NE12      30.58R
HOFFMAN        SUNNY     43  22  43 E12G18    30.57R

.........WESTERN NC.........

CITY           SKY/WX    TMP DP  RH WIND       PRES   REMARKS
CHARLOTTE      MOSUNNY   45  20  36 E9G20     30.57R
GREENSBORO     MOSUNNY   42   8  24 E8        30.57R
HICKORY        NOT AVBL
BOONE          NOT AVBL
ASHEVILLE      NOT AVBL

.....................REST OF SOUTH CAROLINA.....................

.........EASTERN SC.........

CITY           SKY/WX    TMP DP  RH WIND       PRES   REMARKS
CHARLESTON     SUNNY     55  38  52 NE12G23   30.47R
BEAUFORT MCAS  MOSUNNY   58  42  55 NE13G22   30.45R
HILTON HEAD    SUNNY     59  46  63 NE14G23   30.42R

.........CENTRAL SC.........

CITY           SKY/WX    TMP DP  RH WIND       PRES   REMARKS
COLUMBIA       MOSUNNY   50  23  34 E14G22    30.53R
ORANGEBURG     CLOUDY    49  26  41 NE13      30.52R
SUMTER SHAW    SUNNY     48  22  36 NE14G21   30.52R

.........WESTERN SC.........

CITY           SKY/WX    TMP DP  RH WIND       PRES   REMARKS
GREENVILLE     NOT AVBL
ROCK HILL      SUNNY     45  20  36 SE8G17    30.57R
ANDERSON       MOSUNNY   47  21  35 E14       30.52R
CLEMSON        NOT AVBL
GREENWOOD      SUNNY     46  21  37 E14G21    30.54R


...................COASTAL AND OFFSHORE REPORTS..................

................LOCAL PIERS AND NC RESERVE................


STATION/POSITION TIME  SKY/WX   TEMP    WIND        PRES    VSBY
                                AIR SEA DIR/SP/G
                 (UTC)          (F)     (DEG/KT/KT) (MB)    (MI)
JOHNY MRCER PIER 1348            45 56   40/ 23/ 26 1033.4R
NC RESRV MASNBRO 1245            45      60/  8     1032.0
OCEAN CREST PIER NOT AVBL
SPRINGMAID  PIER 1348                               1033.3R


................COASTAL AND OFFSHORE BUOYS................


STATION/POSITION TIME  SKY/WX   TEMP    WIND        PRES    VSBY
                                AIR SEA DIR/SP/G
                 (UTC)          (F)     (DEG/KT/KT) (MB)    (MI)
DIMNDSHOAL 41025 1350            45 72   30/ 19/ 27 1034.9R
WVE H/P(F/S)=  9/ 9

CAPE LOOKOUT     1400            44      30/ 21/ 25 1035.1R
ONSLOW BAY 41036 NOT AVBL
ONSLOW BAY 41064 1308            48      60/ 21/ 29 1033.3R
ONSLOW BAY 41159 1343               64                N/A
WVE H/P(F/S)=  7/ 6 SWL H/P/D(F/S/D)=  2/ 80/11

MASNBO INL 41110 1359               57                N/A
WVE H/P(F/S)=  6/ 6 SWL H/P/D(F/S/D)=  2/100/11

WILM HARBR 41108 1347               56                N/A
WVE H/P(F/S)=  5/ 4

27SE WRITB 41037 1308            49 62   80/ 19/ 27 1032.6R
FRYING PAN 41013 1400            55 64   40/ 19/ 25 1032.7
SUNST NRSH 41024 NOT AVBL
CAPRS NRSH 41029 1308            56      70/ 21/ 27 1030.5R
EDISTO     41004 1350            60 68   50/ 21/ 27 1029.7R
WVE H/P(F/S)=  8/ 8 SWL H/P/D(F/S/D)=  3/ 70/ 8



..........OFFSHORE BUOYS BEYOND 100 NM OFFSHORE...........
.....IN A TRIANGLE---HAT TO BERMUDA TO BAHAMAS TO HAT.....


STATION/POSITION TIME  SKY/WX   TEMP    WIND        PRES    VSBY
                                AIR SEA DIR/SP/G
                 (UTC)          (F)     (DEG/KT/KT) (MB)    (MI)
150E HAT   41001 NOT AVBL
W BERMUDA  41048 1350            58 68   20/ 19/ 23 1026.7R
WVE H/P(F/S)= 11/ 9 SWL H/P/D(F/S/D)=  8/340/ 9

ATLANTIC S 41049 1350            69 73  100/  6/  8 1021.9R
WVE H/P(F/S)=  5/11 SWL H/P/D(F/S/D)=  5/320/11

E BAHAMAS  41046 NOT AVBL
NE BAHAMAS 41047 1400            68 72   40/ 14/ 17 1021.8
120E CANVRL41010 NOT AVBL

END




USA.gov is the U.S. government's official web portal to all federal, state and local government web resources and services.